"Sample Date","Sample Time","Sample Value","Units","Flow Rate","Sample Interval","Number Channels","Micron Size 0","Counts/Channel 0","Micron Size 1","Counts/Channel 1","Micron Size 2","Counts/Channel 2","Micron Size 3","Counts/Channel 3","Micron Size 4","Counts/Channel 4","Micron Size 5","Counts/Channel 5","Micron Size 6","Counts/Channel 6","Micron Size 7","Counts/Channel 7","Micron Size 8","Counts/Channel 8","Micron Size 9","Counts/Channel 9","Micron Size 10","Counts/Channel 10","Micron Size 11","Counts/Channel 11","Micron Size 12","Counts/Channel 12","Micron Size 13","Counts/Channel 13","Micron Size 14","Counts/Channel 14","Micron Size 15","Counts/Channel 15","Micron Size 16","Counts/Channel 16","Micron Size 17","Counts/Channel 17","Micron Size 18","Counts/Channel 18","Micron Size 19","Counts/Channel 19","Micron Size 20","Counts/Channel 20","Micron Size 21","Counts/Channel 21","Micron Size 22","Counts/Channel 22","Micron Size 23","Counts/Channel 23","Micron Size 24","Counts/Channel 24","Micron Size 25","Counts/Channel 25","Micron Size 26","Counts/Channel 26","Micron Size 27","Counts/Channel 27","Micron Size 28","Counts/Channel 28","Micron Size 29","Counts/Channel 29","Micron Size 30","Counts/Channel 30","Micron Size 31","Counts/Channel 31"
"04/10/08","07:00:05",17377.000,"cc",28284.340,6.00,6,0.100,14148.000,0.200,1273.000,0.300,724.000,0.500,925.000,1.000,307.000,5.000,0
"04/10/08","07:00:11",17524.000,"cc",28352.842,6.00,6,0.100,14386.000,0.200,1260.000,0.300,708.000,0.500,857.000,1.000,313.000,5.000,0
"04/10/08","07:00:17",17369.000,"cc",28241.844,6.00,6,0.100,14109.000,0.200,1358.000,0.300,707.000,0.500,834.000,1.000,361.000,5.000,0
"04/10/08","07:00:23",17625.000,"cc",28343.973,6.00,6,0.100,14362.000,0.200,1277.000,0.300,710.000,0.500,930.000,1.000,346.000,5.000,0
"04/10/08","07:00:29",17597.000,"cc",28340.203,6.00,6,0.100,14421.000,0.200,1243.000,0.300,703.000,0.500,878.000,1.000,352.000,5.000,0
"04/10/08","07:00:35",16949.000,"cc",28357.865,6.00,6,0.100,13824.000,0.200,1231.000,0.300,714.000,0.500,836.000,1.000,344.000,5.000,0
"04/10/08","07:00:41",17104.000,"cc",28306.582,6.00,6,0.100,13904.000,0.200,1232.000,0.300,739.000,0.500,879.000,1.000,350.000,5.000,0
"04/10/08","07:00:47",17397.000,"cc",28254.547,6.00,6,0.100,14237.000,0.200,1239.000,0.300,711.000,0.500,862.000,1.000,348.000,5.000,0
"04/10/08","07:00:53",17527.000,"cc",28345.043,6.00,6,0.100,14312.000,0.200,1301.000,0.300,705.000,0.500,857.000,1.000,352.000,5.000,0
"04/10/08","07:00:59",17131.000,"cc",28365.164,6.00,6,0.100,14036.000,0.200,1185.000,0.300,678.000,0.500,886.000,1.000,345.000,5.000,1.000
"04/10/08","07:01:05",17426.000,"cc",28320.912,6.00,6,0.100,14154.000,0.200,1258.000,0.300,752.000,0.500,923.000,1.000,339.000,5.000,0
"04/10/08","07:01:11",17471.000,"cc",28292.574,6.00,6,0.100,14232.000,0.200,1225.000,0.300,778.000,0.500,870.000,1.000,366.000,5.000,0
"04/10/08","07:01:17",17643.000,"cc",28280.320,6.00,6,0.100,14379.000,0.200,1284.000,0.300,766.000,0.500,871.000,1.000,343.000,5.000,0
"04/10/08","07:01:23",17340.000,"cc",28334.254,6.00,6,0.100,14132.000,0.200,1268.000,0.300,739.000,0.500,858.000,1.000,343.000,5.000,0
"04/10/08","07:01:29",17415.000,"cc",28314.852,6.00,6,0.100,14249.000,0.200,1224.000,0.300,716.000,0.500,884.000,1.000,342.000,5.000,0
"04/10/08","07:01:35",17289.000,"cc",28293.897,6.00,6,0.100,14108.000,0.200,1215.000,0.300,733.000,0.500,883.000,1.000,350.000,5.000,0
"04/10/08","07:01:41",17216.000,"cc",28348.779,6.00,6,0.100,14118.000,0.200,1252.000,0.300,671.000,0.500,834.000,1.000,341.000,5.000,0
"04/10/08","07:01:47",17354.000,"cc",28288.482,6.00,6,0.100,14192.000,0.200,1272.000,0.300,725.000,0.500,857.000,1.000,308.000,5.000,0
"04/10/08","07:01:53",17480.000,"cc",28361.713,6.00,6,0.100,14230.000,0.200,1288.000,0.300,766.000,0.500,857.000,1.000,339.000,5.000,0
"04/10/08","07:01:59",17364.000,"cc",28290.182,6.00,6,0.100,14254.000,0.200,1228.000,0.300,725.000,0.500,832.000,1.000,325.000,5.000,0
"04/10/08","07:02:05",17407.000,"cc",28323.281,6.00,6,0.100,14307.000,0.200,1251.000,0.300,717.000,0.500,815.000,1.000,317.000,5.000,0
"04/10/08","07:02:11",17761.000,"cc",28318.561,6.00,6,0.100,14448.000,0.200,1331.000,0.300,743.000,0.500,890.000,1.000,349.000,5.000,0
"04/10/08","07:02:17",17263.000,"cc",28335.992,6.00,6,0.100,14081.000,0.200,1306.000,0.300,715.000,0.500,823.000,1.000,338.000,5.000,0
"04/10/08","07:02:23",17270.000,"cc",28295.801,6.00,6,0.100,14086.000,0.200,1297.000,0.300,736.000,0.500,808.000,1.000,343.000,5.000,0
"04/10/08","07:02:29",16839.000,"cc",28358.600,6.00,6,0.100,13707.000,0.200,1254.000,0.300,708.000,0.500,821.000,1.000,349.000,5.000,0
"04/10/08","07:02:35",16976.000,"cc",28334.522,6.00,6,0.100,13879.000,0.200,1229.000,0.300,679.000,0.500,856.000,1.000,333.000,5.000,0
"04/10/08","07:02:41",16815.000,"cc",28300.078,6.00,6,0.100,13694.000,0.200,1219.000,0.300,655.000,0.500,899.000,1.000,347.000,5.000,1.000
"04/10/08","07:02:47",17060.000,"cc",28275.541,6.00,6,0.100,13999.000,0.200,1174.000,0.300,706.000,0.500,829.000,1.000,352.000,5.000,0
"04/10/08","07:02:53",17251.000,"cc",28305.545,6.00,6,0.100,14016.000,0.200,1250.000,0.300,729.000,0.500,898.000,1.000,357.000,5.000,1.000
"04/10/08","07:02:59",17303.000,"cc",28319.301,6.00,6,0.100,14126.000,0.200,1221.000,0.300,715.000,0.500,863.000,1.000,378.000,5.000,0
"04/10/08","07:03:05",17263.000,"cc",28333.473,6.00,6,0.100,14069.000,0.200,1275.000,0.300,692.000,0.500,901.000,1.000,326.000,5.000,0
"04/10/08","07:03:11",17323.000,"cc",28334.467,6.00,6,0.100,14103.000,0.200,1271.000,0.300,735.000,0.500,882.000,1.000,332.000,5.000,0
"04/10/08","07:03:17",17494.000,"cc",28299.557,6.00,6,0.100,14119.000,0.200,1334.000,0.300,761.000,0.500,898.000,1.000,382.000,5.000,0
"04/10/08","07:03:23",17375.000,"cc",28243.660,6.00,6,0.100,14100.000,0.200,1330.000,0.300,746.000,0.500,858.000,1.000,341.000,5.000,0
"04/10/08","07:03:29",17271.000,"cc",28351.824,6.00,6,0.100,14079.000,0.200,1333.000,0.300,726.000,0.500,817.000,1.000,316.000,5.000,0
"04/10/08","07:03:35",17246.000,"cc",28293.004,6.00,6,0.100,14082.000,0.200,1213.000,0.300,736.000,0.500,863.000,1.000,352.000,5.000,0
"04/10/08","07:03:41",17114.000,"cc",28292.670,6.00,6,0.100,13877.000,0.200,1307.000,0.300,720.000,0.500,847.000,1.000,363.000,5.000,0
"04/10/08","07:03:47",17092.000,"cc",28367.527,6.00,6,0.100,13951.000,0.200,1255.000,0.300,733.000,0.500,788.000,1.000,364.000,5.000,1.000
"04/10/08","07:03:53",17101.000,"cc",28293.779,6.00,6,0.100,13848.000,0.200,1265.000,0.300,764.000,0.500,889.000,1.000,335.000,5.000,0
"04/10/08","07:03:59",17058.000,"cc",28304.188,6.00,6,0.100,13864.000,0.200,1234.000,0.300,738.000,0.500,864.000,1.000,358.000,5.000,0
"04/10/08","07:04:05",17187.000,"cc",28351.053,6.00,6,0.100,14035.000,0.200,1204.000,0.300,720.000,0.500,896.000,1.000,332.000,5.000,0
"04/10/08","07:04:11",17009.000,"cc",28300.717,6.00,6,0.100,13871.000,0.200,1239.000,0.300,718.000,0.500,855.000,1.000,326.000,5.000,0
"04/10/08","07:04:17",16832.000,"cc",28334.199,6.00,6,0.100,13678.000,0.200,1238.000,0.300,702.000,0.500,856.000,1.000,358.000,5.000,0
"04/10/08","07:04:23",16792.000,"cc",28310.777,6.00,6,0.100,13685.000,0.200,1221.000,0.300,695.000,0.500,849.000,1.000,342.000,5.000,0
"04/10/08","07:04:29",16781.000,"cc",28274.658,6.00,6,0.100,13733.000,0.200,1238.000,0.300,683.000,0.500,791.000,1.000,335.000,5.000,1.000
"04/10/08","07:04:35",16759.000,"cc",28350.674,6.00,6,0.100,13608.000,0.200,1223.000,0.300,751.000,0.500,832.000,1.000,345.000,5.000,0
"04/10/08","07:04:41",16924.000,"cc",28326.582,6.00,6,0.100,13857.000,0.200,1195.000,0.300,692.000,0.500,827.000,1.000,353.000,5.000,0
"04/10/08","07:04:47",16831.000,"cc",28324.830,6.00,6,0.100,13689.000,0.200,1234.000,0.300,709.000,0.500,860.000,1.000,339.000,5.000,0
"04/10/08","07:04:53",16850.000,"cc",28328.178,6.00,6,0.100,13738.000,0.200,1196.000,0.300,716.000,0.500,862.000,1.000,338.000,5.000,0
"04/10/08","07:04:59",16863.000,"cc",28354.434,6.00,6,0.100,13802.000,0.200,1183.000,0.300,665.000,0.500,857.000,1.000,355.000,5.000,1.000
"04/10/08","07:05:05",16741.000,"cc",28296.182,6.00,6,0.100,13637.000,0.200,1174.000,0.300,687.000,0.500,869.000,1.000,374.000,5.000,0
"04/10/08","07:05:11",16827.000,"cc",28247.139,6.00,6,0.100,13670.000,0.200,1236.000,0.300,752.000,0.500,831.000,1.000,338.000,5.000,0
"04/10/08","07:05:17",17147.000,"cc",28324.647,6.00,6,0.100,13978.000,0.200,1229.000,0.300,716.000,0.500,871.000,1.000,353.000,5.000,0
"04/10/08","07:05:23",16995.000,"cc",28322.676,6.00,6,0.100,13839.000,0.200,1241.000,0.300,754.000,0.500,832.000,1.000,329.000,5.000,0
"04/10/08","07:05:29",17087.000,"cc",28313.438,6.00,6,0.100,13908.000,0.200,1255.000,0.300,740.000,0.500,828.000,1.000,356.000,5.000,0
"04/10/08","07:05:35",16932.000,"cc",28361.637,6.00,6,0.100,13767.000,0.200,1278.000,0.300,665.000,0.500,866.000,1.000,356.000,5.000,0
"04/10/08","07:05:41",16867.000,"cc",28276.031,6.00,6,0.100,13784.000,0.200,1194.000,0.300,732.000,0.500,866.000,1.000,291.000,5.000,0
"04/10/08","07:05:47",16900.000,"cc",28375.580,6.00,6,0.100,13746.000,0.200,1225.000,0.300,727.000,0.500,843.000,1.000,359.000,5.000,0
"04/10/08","07:05:53",16828.000,"cc",28343.867,6.00,6,0.100,13702.000,0.200,1232.000,0.300,721.000,0.500,842.000,1.000,331.000,5.000,0
"04/10/08","07:05:59",16892.000,"cc",28306.397,6.00,6,0.100,13712.000,0.200,1222.000,0.300,743.000,0.500,823.000,1.000,392.000,5.000,0
"04/10/08","07:06:05",17118.000,"cc",28282.953,6.00,6,0.100,13987.000,0.200,1251.000,0.300,687.000,0.500,830.000,1.000,363.000,5.000,0
"04/10/08","07:06:11",17024.000,"cc",28326.900,6.00,6,0.100,13876.000,0.200,1271.000,0.300,713.000,0.500,824.000,1.000,340.000,5.000,0
"04/10/08","07:06:17",16926.000,"cc",28281.924,6.00,6,0.100,13789.000,0.200,1231.000,0.300,738.000,0.500,806.000,1.000,362.000,5.000,0
"04/10/08","07:06:23",16930.000,"cc",28277.143,6.00,6,0.100,13784.000,0.200,1227.000,0.300,736.000,0.500,855.000,1.000,328.000,5.000,0
"04/10/08","07:06:29",17011.000,"cc",28299.441,6.00,6,0.100,13863.000,0.200,1236.000,0.300,711.000,0.500,873.000,1.000,328.000,5.000,0
"04/10/08","07:06:35",16967.000,"cc",28384.129,6.00,6,0.100,13767.000,0.200,1254.000,0.300,753.000,0.500,852.000,1.000,341.000,5.000,0
"04/10/08","07:06:41",17523.000,"cc",28312.397,6.00,6,0.100,14272.000,0.200,1301.000,0.300,708.000,0.500,876.000,1.000,366.000,5.000,0
"04/10/08","07:06:47",17085.000,"cc",28348.207,6.00,6,0.100,13903.000,0.200,1258.000,0.300,739.000,0.500,851.000,1.000,334.000,5.000,0
"04/10/08","07:06:53",17197.000,"cc",28284.088,6.00,6,0.100,13999.000,0.200,1279.000,0.300,714.000,0.500,860.000,1.000,345.000,5.000,0
"04/10/08","07:06:59",18120.000,"cc",28275.547,6.00,6,0.100,14393.000,0.200,1464.000,0.300,899.000,0.500,965.000,1.000,399.000,5.000,0
"04/10/08","07:07:05",19181.000,"cc",28334.371,6.00,6,0.100,14858.000,0.200,1783.000,0.300,1046.000,0.500,1073.000,1.000,421.000,5.000,0
"04/10/08","07:07:11",17172.000,"cc",28351.932,6.00,6,0.100,13864.000,0.200,1274.000,0.300,711.000,0.500,936.000,1.000,387.000,5.000,0
"04/10/08","07:07:17",17316.000,"cc",28354.131,6.00,6,0.100,14104.000,0.200,1269.000,0.300,698.000,0.500,858.000,1.000,387.000,5.000,0
"04/10/08","07:07:23",17479.000,"cc",28304.551,6.00,6,0.100,14233.000,0.200,1289.000,0.300,727.000,0.500,872.000,1.000,357.000,5.000,1.000
"04/10/08","07:07:29",17469.000,"cc",28296.152,6.00,6,0.100,14154.000,0.200,1313.000,0.300,747.000,0.500,860.000,1.000,395.000,5.000,0
"04/10/08","07:07:35",17642.000,"cc",28317.768,6.00,6,0.100,14374.000,0.200,1284.000,0.300,719.000,0.500,880.000,1.000,384.000,5.000,1.000
"04/10/08","07:07:41",17460.000,"cc",28296.902,6.00,6,0.100,14179.000,0.200,1330.000,0.300,730.000,0.500,841.000,1.000,380.000,5.000,0
"04/10/08","07:07:47",17546.000,"cc",28363.676,6.00,6,0.100,14102.000,0.200,1356.000,0.300,794.000,0.500,898.000,1.000,396.000,5.000,0
"04/10/08","07:07:53",17249.000,"cc",28299.156,6.00,6,0.100,13854.000,0.200,1343.000,0.300,793.000,0.500,898.000,1.000,361.000,5.000,0
"04/10/08","07:07:59",17650.000,"cc",28350.033,6.00,6,0.100,14248.000,0.200,1343.000,0.300,767.000,0.500,941.000,1.000,351.000,5.000,0
"04/10/08","07:08:05",17223.000,"cc",28300.420,6.00,6,0.100,13996.000,0.200,1273.000,0.300,732.000,0.500,853.000,1.000,369.000,5.000,0
"04/10/08","07:08:11",17332.000,"cc",28323.035,6.00,6,0.100,14102.000,0.200,1250.000,0.300,729.000,0.500,898.000,1.000,353.000,5.000,0
"04/10/08","07:08:17",16909.000,"cc",28348.875,6.00,6,0.100,13854.000,0.200,1209.000,0.300,650.000,0.500,844.000,1.000,351.000,5.000,1.000
"04/10/08","07:08:23",17155.000,"cc",28337.127,6.00,6,0.100,13920.000,0.200,1225.000,0.300,708.000,0.500,921.000,1.000,381.000,5.000,0
"04/10/08","07:08:29",16907.000,"cc",28305.219,6.00,6,0.100,13692.000,0.200,1271.000,0.300,703.000,0.500,874.000,1.000,367.000,5.000,0
"04/10/08","07:08:35",16950.000,"cc",28252.652,6.00,6,0.100,13694.000,0.200,1286.000,0.300,720.000,0.500,899.000,1.000,351.000,5.000,0
"04/10/08","07:08:41",17067.000,"cc",28310.613,6.00,6,0.100,13801.000,0.200,1245.000,0.300,730.000,0.500,933.000,1.000,357.000,5.000,1.000
"04/10/08","07:08:47",16999.000,"cc",28290.893,6.00,6,0.100,13869.000,0.200,1207.000,0.300,709.000,0.500,868.000,1.000,346.000,5.000,0
"04/10/08","07:08:53",17120.000,"cc",28312.309,6.00,6,0.100,13963.000,0.200,1206.000,0.300,730.000,0.500,858.000,1.000,363.000,5.000,0
"04/10/08","07:08:59",17088.000,"cc",28293.041,6.00,6,0.100,14003.000,0.200,1234.000,0.300,660.000,0.500,837.000,1.000,354.000,5.000,0
"04/10/08","07:09:05",17306.000,"cc",28373.584,6.00,6,0.100,14092.000,0.200,1241.000,0.300,747.000,0.500,881.000,1.000,345.000,5.000,0
"04/10/08","07:09:11",17300.000,"cc",28371.609,6.00,6,0.100,14094.000,0.200,1216.000,0.300,729.000,0.500,886.000,1.000,375.000,5.000,0
"04/10/08","07:09:17",17326.000,"cc",28222.068,6.00,6,0.100,14162.000,0.200,1218.000,0.300,683.000,0.500,913.000,1.000,350.000,5.000,0
"04/10/08","07:09:23",17736.000,"cc",28249.629,6.00,6,0.100,14498.000,0.200,1260.000,0.300,735.000,0.500,884.000,1.000,359.000,5.000,0
"04/10/08","07:09:29",17560.000,"cc",28328.043,6.00,6,0.100,14385.000,0.200,1228.000,0.300,748.000,0.500,849.000,1.000,350.000,5.000,0
"04/10/08","07:09:35",17428.000,"cc",28299.227,6.00,6,0.100,14186.000,0.200,1259.000,0.300,708.000,0.500,875.000,1.000,400.000,5.000,0
"04/10/08","07:09:41",17523.000,"cc",28354.576,6.00,6,0.100,14254.000,0.200,1305.000,0.300,719.000,0.500,896.000,1.000,349.000,5.000,0
"04/10/08","07:09:47",17565.000,"cc",28270.322,6.00,6,0.100,14331.000,0.200,1267.000,0.300,736.000,0.500,852.000,1.000,379.000,5.000,0
"04/10/08","07:09:53",17796.000,"cc",28326.732,6.00,6,0.100,14449.000,0.200,1351.000,0.300,765.000,0.500,887.000,1.000,344.000,5.000,0
"04/10/08","07:09:59",17729.000,"cc",28271.482,6.00,6,0.100,14537.000,0.200,1251.000,0.300,721.000,0.500,870.000,1.000,350.000,5.000,0
"04/10/08","07:10:05",17595.000,"cc",28306.318,6.00,6,0.100,14333.000,0.200,1288.000,0.300,761.000,0.500,857.000,1.000,356.000,5.000,0
"04/10/08","07:10:11",17931.000,"cc",28343.465,6.00,6,0.100,14665.000,0.200,1285.000,0.300,712.000,0.500,876.000,1.000,393.000,5.000,0
"04/10/08","07:10:17",17705.000,"cc",28302.895,6.00,6,0.100,14407.000,0.200,1279.000,0.300,779.000,0.500,885.000,1.000,355.000,5.000,0
"04/10/08","07:10:23",17826.000,"cc",28486.227,6.00,6,0.100,14554.000,0.200,1299.000,0.300,720.000,0.500,885.000,1.000,368.000,5.000,0
"04/10/08","07:10:29",17614.000,"cc",28178.934,6.00,6,0.100,14307.000,0.200,1326.000,0.300,752.000,0.500,880.000,1.000,348.000,5.000,1.000
"04/10/08","07:10:35",17893.000,"cc",28401.287,6.00,6,0.100,14562.000,0.200,1340.000,0.300,725.000,0.500,898.000,1.000,368.000,5.000,0
"04/10/08","07:10:41",18076.000,"cc",28286.451,6.00,6,0.100,14799.000,0.200,1380.000,0.300,715.000,0.500,842.000,1.000,340.000,5.000,0
"04/10/08","07:10:47",17794.000,"cc",28273.463,6.00,6,0.100,14546.000,0.200,1276.000,0.300,752.000,0.500,852.000,1.000,368.000,5.000,0
"04/10/08","07:10:53",18070.000,"cc",28290.484,6.00,6,0.100,14729.000,0.200,1314.000,0.300,767.000,0.500,895.000,1.000,365.000,5.000,0
"04/10/08","07:10:59",18114.000,"cc",28324.861,6.00,6,0.100,14742.000,0.200,1362.000,0.300,762.000,0.500,903.000,1.000,345.000,5.000,0
"04/10/08","07:11:05",17974.000,"cc",28384.373,6.00,6,0.100,14627.000,0.200,1337.000,0.300,733.000,0.500,896.000,1.000,381.000,5.000,0
"04/10/08","07:11:11",18441.000,"cc",28282.098,6.00,6,0.100,15055.000,0.200,1378.000,0.300,763.000,0.500,892.000,1.000,353.000,5.000,0
"04/10/08","07:11:17",18197.000,"cc",28276.098,6.00,6,0.100,14830.000,0.200,1353.000,0.300,762.000,0.500,896.000,1.000,356.000,5.000,0
"04/10/08","07:11:23",17914.000,"cc",28319.586,6.00,6,0.100,14614.000,0.200,1384.000,0.300,725.000,0.500,856.000,1.000,335.000,5.000,0
"04/10/08","07:11:29",18266.000,"cc",28355.623,6.00,6,0.100,14928.000,0.200,1335.000,0.300,740.000,0.500,912.000,1.000,351.000,5.000,0
"04/10/08","07:11:35",18029.000,"cc",28318.627,6.00,6,0.100,14768.000,0.200,1373.000,0.300,676.000,0.500,826.000,1.000,386.000,5.000,0
"04/10/08","07:11:41",18219.000,"cc",28347.350,6.00,6,0.100,14881.000,0.200,1322.000,0.300,744.000,0.500,885.000,1.000,387.000,5.000,0
"04/10/08","07:11:47",18149.000,"cc",28255.416,6.00,6,0.100,14824.000,0.200,1363.000,0.300,758.000,0.500,869.000,1.000,335.000,5.000,0
"04/10/08","07:11:53",18204.000,"cc",28313.881,6.00,6,0.100,14884.000,0.200,1291.000,0.300,784.000,0.500,889.000,1.000,356.000,5.000,0
"04/10/08","07:11:59",18432.000,"cc",28333.541,6.00,6,0.100,15116.000,0.200,1355.000,0.300,748.000,0.500,889.000,1.000,324.000,5.000,0
"04/10/08","07:12:05",18462.000,"cc",28319.859,6.00,6,0.100,15027.000,0.200,1381.000,0.300,762.000,0.500,935.000,1.000,357.000,5.000,0
"04/10/08","07:12:11",17962.000,"cc",28259.852,6.00,6,0.100,14682.000,0.200,1335.000,0.300,696.000,0.500,886.000,1.000,363.000,5.000,0
"04/10/08","07:12:17",18528.000,"cc",28321.695,6.00,6,0.100,15107.000,0.200,1425.000,0.300,738.000,0.500,910.000,1.000,348.000,5.000,0
"04/10/08","07:12:23",18819.000,"cc",28367.871,6.00,6,0.100,15232.000,0.200,1476.000,0.300,790.000,0.500,949.000,1.000,372.000,5.000,0
"04/10/08","07:12:29",18371.000,"cc",28294.859,6.00,6,0.100,14862.000,0.200,1365.000,0.300,819.000,0.500,946.000,1.000,379.000,5.000,0
"04/10/08","07:12:35",18382.000,"cc",28332.701,6.00,6,0.100,14751.000,0.200,1433.000,0.300,852.000,0.500,932.000,1.000,413.000,5.000,1.000
"04/10/08","07:12:41",17679.000,"cc",28352.715,6.00,6,0.100,14412.000,0.200,1335.000,0.300,706.000,0.500,832.000,1.000,394.000,5.000,0
"04/10/08","07:12:47",17574.000,"cc",28331.791,6.00,6,0.100,14217.000,0.200,1369.000,0.300,728.000,0.500,916.000,1.000,343.000,5.000,1.000
"04/10/08","07:12:53",17618.000,"cc",28304.150,6.00,6,0.100,14397.000,0.200,1298.000,0.300,728.000,0.500,837.000,1.000,358.000,5.000,0
"04/10/08","07:12:59",17540.000,"cc",28329.957,6.00,6,0.100,14275.000,0.200,1247.000,0.300,757.000,0.500,915.000,1.000,346.000,5.000,0
"04/10/08","07:13:05",17751.000,"cc",28301.236,6.00,6,0.100,14410.000,0.200,1343.000,0.300,792.000,0.500,812.000,1.000,394.000,5.000,0
"04/10/08","07:13:11",17501.000,"cc",28288.768,6.00,6,0.100,14237.000,0.200,1292.000,0.300,742.000,0.500,877.000,1.000,353.000,5.000,0
"04/10/08","07:13:17",17820.000,"cc",28305.512,6.00,6,0.100,14478.000,0.200,1345.000,0.300,773.000,0.500,838.000,1.000,385.000,5.000,1.000
"04/10/08","07:13:23",17682.000,"cc",28362.098,6.00,6,0.100,14442.000,0.200,1326.000,0.300,700.000,0.500,844.000,1.000,370.000,5.000,0
"04/10/08","07:13:29",17811.000,"cc",28289.301,6.00,6,0.100,14491.000,0.200,1301.000,0.300,760.000,0.500,869.000,1.000,390.000,5.000,0
"04/10/08","07:13:35",17843.000,"cc",28262.139,6.00,6,0.100,14439.000,0.200,1327.000,0.300,778.000,0.500,940.000,1.000,359.000,5.000,0
"04/10/08","07:13:41",17625.000,"cc",28329.887,6.00,6,0.100,14416.000,0.200,1317.000,0.300,688.000,0.500,829.000,1.000,375.000,5.000,0
"04/10/08","07:13:47",17771.000,"cc",28305.066,6.00,6,0.100,14504.000,0.200,1317.000,0.300,735.000,0.500,901.000,1.000,314.000,5.000,0
"04/10/08","07:13:53",17550.000,"cc",28285.498,6.00,6,0.100,14293.000,0.200,1263.000,0.300,711.000,0.500,921.000,1.000,362.000,5.000,0
"04/10/08","07:13:59",17820.000,"cc",28388.297,6.00,6,0.100,14516.000,0.200,1409.000,0.300,694.000,0.500,841.000,1.000,360.000,5.000,0
"04/10/08","07:14:05",17786.000,"cc",28383.275,6.00,6,0.100,14467.000,0.200,1250.000,0.300,759.000,0.500,927.000,1.000,383.000,5.000,0
"04/10/08","07:14:11",17781.000,"cc",28298.065,6.00,6,0.100,14482.000,0.200,1334.000,0.300,735.000,0.500,856.000,1.000,374.000,5.000,0
"04/10/08","07:14:17",17690.000,"cc",28317.231,6.00,6,0.100,14472.000,0.200,1307.000,0.300,751.000,0.500,837.000,1.000,323.000,5.000,0
"04/10/08","07:14:23",17722.000,"cc",28353.397,6.00,6,0.100,14435.000,0.200,1359.000,0.300,739.000,0.500,821.000,1.000,368.000,5.000,0
"04/10/08","07:14:29",17755.000,"cc",28338.561,6.00,6,0.100,14481.000,0.200,1311.000,0.300,747.000,0.500,842.000,1.000,374.000,5.000,0
"04/10/08","07:14:35",17910.000,"cc",28312.047,6.00,6,0.100,14542.000,0.200,1341.000,0.300,769.000,0.500,842.000,1.000,416.000,5.000,0
"04/10/08","07:14:41",17868.000,"cc",28267.750,6.00,6,0.100,14573.000,0.200,1338.000,0.300,725.000,0.500,891.000,1.000,340.000,5.000,1.000
"04/10/08","07:14:47",17674.000,"cc",28335.320,6.00,6,0.100,14396.000,0.200,1254.000,0.300,749.000,0.500,892.000,1.000,383.000,5.000,0
"04/10/08","07:14:53",17685.000,"cc",28326.383,6.00,6,0.100,14367.000,0.200,1287.000,0.300,762.000,0.500,888.000,1.000,381.000,5.000,0
"04/10/08","07:14:59",17683.000,"cc",28294.430,6.00,6,0.100,14462.000,0.200,1271.000,0.300,762.000,0.500,848.000,1.000,340.000,5.000,0
"04/10/08","07:15:05",17621.000,"cc",28318.826,6.00,6,0.100,14263.000,0.200,1332.000,0.300,725.000,0.500,905.000,1.000,396.000,5.000,0
"04/10/08","07:15:11",17755.000,"cc",28317.139,6.00,6,0.100,14533.000,0.200,1266.000,0.300,716.000,0.500,865.000,1.000,375.000,5.000,0
"04/10/08","07:15:17",17710.000,"cc",28320.828,6.00,6,0.100,14515.000,0.200,1323.000,0.300,688.000,0.500,854.000,1.000,330.000,5.000,0
"04/10/08","07:15:23",17982.000,"cc",28306.658,6.00,6,0.100,14634.000,0.200,1349.000,0.300,726.000,0.500,902.000,1.000,371.000,5.000,0
"04/10/08","07:15:29",17937.000,"cc",28302.051,6.00,6,0.100,14695.000,0.200,1304.000,0.300,708.000,0.500,861.000,1.000,369.000,5.000,0
"04/10/08","07:15:35",17690.000,"cc",28320.672,6.00,6,0.100,14482.000,0.200,1211.000,0.300,819.000,0.500,831.000,1.000,347.000,5.000,0
"04/10/08","07:15:41",17844.000,"cc",28287.035,6.00,6,0.100,14588.000,0.200,1334.000,0.300,722.000,0.500,844.000,1.000,356.000,5.000,0
"04/10/08","07:15:47",17689.000,"cc",28349.838,6.00,6,0.100,14317.000,0.200,1294.000,0.300,749.000,0.500,924.000,1.000,405.000,5.000,0
"04/10/08","07:15:53",17694.000,"cc",28312.910,6.00,6,0.100,14494.000,0.200,1292.000,0.300,722.000,0.500,837.000,1.000,349.000,5.000,0
"04/10/08","07:15:59",17766.000,"cc",28356.250,6.00,6,0.100,14475.000,0.200,1342.000,0.300,752.000,0.500,848.000,1.000,349.000,5.000,0
"04/10/08","07:16:05",17910.000,"cc",28260.078,6.00,6,0.100,14519.000,0.200,1355.000,0.300,748.000,0.500,894.000,1.000,394.000,5.000,0
"04/10/08","07:16:11",17939.000,"cc",28335.795,6.00,6,0.100,14670.000,0.200,1318.000,0.300,752.000,0.500,826.000,1.000,373.000,5.000,0
"04/10/08","07:16:17",17871.000,"cc",28294.039,6.00,6,0.100,14502.000,0.200,1346.000,0.300,778.000,0.500,879.000,1.000,366.000,5.000,0
"04/10/08","07:16:23",17821.000,"cc",28393.063,6.00,6,0.100,14524.000,0.200,1371.000,0.300,704.000,0.500,861.000,1.000,361.000,5.000,0
"04/10/08","07:16:29",17862.000,"cc",28297.578,6.00,6,0.100,14549.000,0.200,1347.000,0.300,721.000,0.500,901.000,1.000,344.000,5.000,0
"04/10/08","07:16:35",18517.000,"cc",28319.854,6.00,6,0.100,15144.000,0.200,1349.000,0.300,767.000,0.500,894.000,1.000,363.000,5.000,0